timestamp,surface_pressure_avg,surface_temp_avg,battery_voltage,lat,long
2023-02-02 00:09:01+00:00,274.3397,2.56,12.65,47.84626,-54.09684
2023-02-02 12:19:01+00:00,297.0414,2.0,14.72,47.84626,-54.09684
2023-02-02 12:29:01+00:00,298.3264,2.0,14.72,47.84626,-54.09684
2023-02-02 12:39:01+00:00,299.3464,1.99,14.72,47.84626,-54.09684
2023-02-02 12:49:01+00:00,289.8231,1.81,14.72,47.84626,-54.09684
2023-02-02 12:59:01+00:00,280.7864,1.86,14.72,47.84626,-54.09684
2023-02-02 13:09:01+00:00,278.9614,1.9,14.72,47.84626,-54.09684
2023-02-02 13:19:01+00:00,273.803,1.93,14.96,47.84626,-54.09684
2023-02-02 13:29:01+00:00,267.1697,1.95,14.96,47.84626,-54.09684
2023-02-02 13:39:01+00:00,266.0331,2.0,14.96,47.84626,-54.09684
2023-02-02 13:49:01+00:00,270.1147,2.1,14.96,47.84626,-54.09684
2023-02-02 13:59:01+00:00,265.7331,2.0,14.96,47.84626,-54.09684
2023-02-02 14:09:01+00:00,259.5731,1.9,14.96,47.84626,-54.09684
2023-02-02 14:19:01+00:00,255.6781,1.9,14.96,47.84626,-54.09684
2023-02-02 14:29:01+00:00,251.9831,1.8,14.96,47.84626,-54.09684
2023-02-02 14:39:01+00:00,243.6714,1.7,14.96,47.84626,-54.09684
2023-02-02 14:49:01+00:00,237.9031,1.7,14.96,47.84626,-54.09684
2023-02-02 14:59:01+00:00,237.4814,1.77,14.96,47.84626,-54.09684
2023-02-02 15:09:01+00:00,236.1997,1.8,14.96,47.84626,-54.09684
2023-02-02 15:19:01+00:00,230.6013,1.87,14.88,47.84626,-54.09684
2023-02-02 15:29:01+00:00,228.5681,1.94,14.88,47.84626,-54.09684
2023-02-02 15:39:01+00:00,230.5132,2.03,14.88,47.84626,-54.09684
2023-02-02 15:49:01+00:00,226.3481,2.0,14.88,47.84626,-54.09684
2023-02-02 15:59:01+00:00,220.9498,1.95,14.88,47.84626,-54.09684
2023-02-02 16:09:01+00:00,223.6431,2.0,14.88,47.84626,-54.09684
2023-02-02 16:19:01+00:00,221.9548,2.1,14.56,47.84626,-54.09684
2023-02-02 16:29:01+00:00,215.5781,2.1,14.56,47.84626,-54.09684
2023-02-02 16:39:01+00:00,215.1948,2.09,14.56,47.84626,-54.09684
2023-02-02 16:49:01+00:00,224.3348,2.1,14.56,47.84626,-54.09684
2023-02-02 16:59:01+00:00,227.8014,2.1,14.56,47.84626,-54.09684
2023-02-02 17:09:01+00:00,227.7581,2.1,14.56,47.84626,-54.09684
2023-02-02 17:19:01+00:00,227.7097,2.1,14.32,47.84626,-54.09684
2023-02-02 17:29:01+00:00,226.7548,2.02,14.32,47.84626,-54.09684
2023-02-02 17:39:01+00:00,226.0382,2.0,14.32,47.84626,-54.09684
2023-02-02 17:49:01+00:00,225.1147,2.0,14.32,47.84626,-54.09684
2023-02-02 17:59:01+00:00,228.2031,2.13,14.32,47.84626,-54.09684
2023-02-02 18:09:01+00:00,235.0598,2.35,14.32,47.84626,-54.09684
2023-02-02 18:19:01+00:00,242.7397,2.46,14.08,47.84626,-54.09684
2023-02-02 18:29:01+00:00,249.3198,2.5,14.08,47.84626,-54.09684
2023-02-02 18:39:01+00:00,252.8797,2.3,14.08,47.84626,-54.09684
2023-02-02 18:49:01+00:00,257.8281,2.19,14.08,47.84626,-54.09684
2023-02-02 18:59:01+00:00,266.0114,2.16,14.08,47.84626,-54.09684
2023-02-02 19:09:01+00:00,272.6714,2.26,14.08,47.84626,-54.09684
2023-02-02 19:19:01+00:00,273.1647,2.4,13.76,47.84626,-54.09684
2023-02-02 19:29:01+00:00,276.1797,2.5,13.76,47.84626,-54.09684
2023-02-02 19:39:01+00:00,285.818,2.5,13.76,47.84626,-54.09684
2023-02-02 19:49:01+00:00,289.7563,2.52,13.76,47.84626,-54.09684
2023-02-02 19:59:01+00:00,288.103,2.56,13.76,47.84626,-54.09684
2023-02-02 20:09:01+00:00,292.4314,2.6,13.76,47.84626,-54.09684
2023-02-02 20:19:00+00:00,303.6063,2.6,13.05,47.84626,-54.09684
2023-02-02 20:29:00+00:00,301.643,2.6,13.05,47.84626,-54.09684
2023-02-02 20:39:00+00:00,299.0131,2.54,13.05,47.84626,-54.09684
2023-02-02 20:49:00+00:00,301.5564,2.52,13.05,47.84626,-54.09684
2023-02-02 20:59:00+00:00,308.0213,2.59,13.05,47.84626,-54.09684
2023-02-02 21:09:00+00:00,306.8714,2.6,13.05,47.84626,-54.09684
2023-02-02 21:19:00+00:00,310.408,2.6,12.73,47.84626,-54.09684
2023-02-02 21:29:00+00:00,311.4413,2.6,12.73,47.84626,-54.09684
2023-02-02 21:39:00+00:00,311.263,2.61,12.73,47.84626,-54.09684
2023-02-02 21:49:00+00:00,314.5114,2.69,12.73,47.84626,-54.09684
2023-02-02 21:59:00+00:00,316.3096,2.7,12.73,47.84626,-54.09684
2023-02-02 22:09:00+00:00,314.6163,2.7,12.73,47.84626,-54.09684
2023-02-02 22:19:01+00:00,316.1614,2.67,12.73,47.84626,-54.09684
2023-02-02 22:29:01+00:00,320.1813,2.66,12.73,47.84626,-54.09684
2023-02-02 22:39:01+00:00,318.1481,2.66,12.73,47.84626,-54.09684
2023-02-02 22:49:01+00:00,314.2079,2.6,12.73,47.84626,-54.09684
2023-02-02 22:59:01+00:00,315.1597,2.6,12.73,47.84626,-54.09684
2023-02-02 23:09:01+00:00,314.9513,2.6,12.73,47.84626,-54.09684
2023-02-02 23:19:00+00:00,311.6597,2.6,12.65,47.84626,-54.09684
2023-02-02 23:29:00+00:00,310.6496,2.6,12.65,47.84626,-54.09684
2023-02-02 23:39:00+00:00,310.6647,2.6,12.65,47.84626,-54.09684
2023-02-02 23:49:00+00:00,308.243,2.6,12.65,47.84626,-54.09684
2023-02-02 23:59:00+00:00,302.5647,2.6,12.65,47.84626,-54.09684
